South Lake Tahoe, CA

4:18 AM PDT on June 27, 2017 (GMT -0700)
Lake Tahoe

Weather History for KTVL - October, 2014

Change the Weather History Date:

Sunday, October 19, 2014

  Actual Average Record
Temperature  
Mean Temperature 50 °F 45 °F  
Max Temperature 70 °F 62 °F 78 °F (1988)
Min Temperature 29 °F 28 °F 17 °F (1969)
Degree Days  
Heating Degree Days 15 20  
Month to date heating degree days 245 339  
Since 1 July heating degree days 559 965  
Cooling Degree Days 0 0  
Month to date cooling degree days 0 0  
Year to date cooling degree days 99 31  
Moisture  
Dew Point 28 °F    
Average Humidity 48    
Maximum Humidity 78    
Minimum Humidity 17    
Precipitation  
Precipitation 0.00 in - 0.99 in (1979)
Month to date precipitation 0.05  
Year to date precipitation 16.47  
Sea Level Pressure  
Sea Level Pressure 29.99 in    
Wind  
Wind Speed 3 mph (South)    
Max Wind Speed 15 mph    
Max Gust Speed 23 mph    
Visibility 10 miles    
Events      
T = Trace of Precipitation, MM = Missing Value Source: NWS Daily Summary

Daily Weather History Graph

Daily Weather History Graph

Search for Another Location

Airport or City:

Trip Planner

Search our weather history database for the weather conditions in past years. The results will help you decide how hot, cold, wet, or windy it might be!

Date:

Astronomy

Oct. 19, 2014 Rise Set
Actual Time 7:13 AM PDT 6:15 PM PDT
Civil Twilight 6:46 AM PDT 6:42 PM PDT
Nautical Twilight 6:15 AM PDT 7:13 PM PDT
Astronomical Twilight 5:44 AM PDT 7:44 PM PDT
Moon 3:13 AM PDT (10/19) 4:08 PM PDT (10/19)
Length of Visible Light 11h 56m
Length of Day
11h 02m
Waning Crescent, 16% of the Moon is Illuminated
Oct 19
Waning Crescent
Oct 23
New
Oct 30
First Quarter
Nov 6
Full
Nov 14
Last Quarter

Hourly Weather History & Observations

Time (PDT) Temp. Windchill Dew Point Humidity Pressure Visibility Wind Dir Wind Speed Gust Speed Precip Events Conditions
12:53 AM 35.1 °F 32.2 °F 28.0 °F 76% 30.00 in 10.0 mi South 3.5 mph - N/A   Clear
1:53 AM 33.1 °F 30.0 °F 27.0 °F 78% 30.01 in 10.0 mi South 3.5 mph - N/A   Clear
2:53 AM 32.0 °F - 26.1 °F 79% 30.00 in 10.0 mi Calm Calm - N/A   Clear
3:53 AM 30.9 °F 27.5 °F 25.0 °F 79% 29.99 in 10.0 mi South 3.5 mph - N/A   Clear
4:53 AM 30.0 °F - 25.0 °F 82% 30.01 in 10.0 mi Calm Calm - N/A   Clear
5:53 AM 30.0 °F 26.5 °F 24.1 °F 79% 30.03 in 10.0 mi SSW 3.5 mph - N/A   Clear
6:53 AM 30.0 °F - 24.1 °F 79% 30.05 in 10.0 mi Calm Calm - N/A   Clear
7:53 AM 30.0 °F 25.2 °F 24.1 °F 79% 30.06 in 10.0 mi South 4.6 mph - N/A   Clear
8:53 AM 39.0 °F 35.7 °F 28.0 °F 65% 30.06 in 10.0 mi South 4.6 mph - N/A   Clear
9:53 AM 54.0 °F - 32.0 °F 43% 30.03 in 10.0 mi ENE 3.5 mph - N/A   Clear
10:53 AM 62.1 °F - 30.0 °F 30% 30.00 in 10.0 mi NE 4.6 mph - N/A   Clear
11:53 AM 66.0 °F - 34.0 °F 30% 29.98 in 10.0 mi Variable 3.5 mph - N/A   Clear
12:53 PM 68.0 °F - 24.1 °F 19% 29.96 in 10.0 mi South 3.5 mph 16.1 mph N/A   Clear
1:53 PM 70.0 °F - 25.0 °F 18% 29.94 in 10.0 mi South 13.8 mph 20.7 mph N/A   Clear
2:53 PM 70.0 °F - 23.0 °F 17% 29.93 in 10.0 mi SW 8.1 mph 19.6 mph N/A   Clear
3:53 PM 68.0 °F - 26.1 °F 21% 29.94 in 10.0 mi Variable 6.9 mph - N/A   Clear
4:53 PM 66.0 °F - 26.1 °F 22% 29.94 in 10.0 mi SSW 9.2 mph - N/A   Clear
5:53 PM 60.1 °F - 28.9 °F 31% 29.97 in 10.0 mi WSW 3.5 mph - N/A   Clear
6:53 PM 53.1 °F - 30.0 °F 41% 30.00 in 10.0 mi Calm Calm - N/A   Clear
7:53 PM 48.9 °F - 30.9 °F 50% 30.01 in 10.0 mi Calm Calm - N/A   Clear
8:53 PM 46.9 °F - 30.9 °F 54% 30.00 in 10.0 mi Calm Calm - N/A   Clear
9:53 PM 44.1 °F - 30.0 °F 58% 29.96 in 10.0 mi Calm Calm - N/A   Clear
10:53 PM 41.0 °F - 28.9 °F 62% 29.95 in 10.0 mi Calm Calm - N/A   Clear
11:53 PM 52.0 °F - 30.9 °F 45% 29.90 in 10.0 mi SW 5.8 mph - N/A   Clear